COMPASS
1 32787U 08021E 13087.85792941 .00001491 00000-0 18014-3 0 5800
2 32787 097.7609 148.4906 0014781 201.7533 272.4674 14.85127445266042
AAUSAT2
1 32788U 08021F 13087.13820969 .00001801 00000-0 21419-3 0 5677
2 32788 097.7614 148.3548 0014326 203.9284 208.4517 14.85552804265979
DO-64
1 32789U 08021G 13087.22297019 .00003037 00000-0 33745-3 0 5940
2 32789 097.7758 151.7539 0014110 198.0059 194.5826 14.87860763266081
CO-66
1 32791U 08021J 13087.71582861 .00001278 00000-0 15828-3 0 5643
2 32791 097.7610 147.8147 0015189 203.4116 303.2638 14.84337005265932
RS-30
1 32953U 08025A 13087.57310257 .00000010 00000-0 00000 0 0 7174
2 32953 082.4990 118.3267 0019969 051.5030 308.7837 12.43032374219896
METEOR-M
1 35865U 09049A 13087.72372075 -.00000015 00000-0 12805-4 0 3183
2 35865 098.6125 142.0886 0002096 330.2766 029.8285 14.21881864183035
RS-38
1 35869U 09049E 13087.77059994 .00000010 00000-0 24174-4 0 2943
2 35869 098.6063 142.0706 0004251 318.4751 041.6103 14.22117960183062
JUGNU
1 37839U 11058B 13086.41602406 .00000388 00000-0 65880-4 0 3552
2 37839 019.9619 082.2387 0019252 102.0554 026.9174 14.12135070 75323
SRMSAT
1 37841U 11058D 13086.43171116 .00000365 00000-0 56032-4 0 3572
2 37841 019.9722 092.5824 0012151 059.0877 065.2871 14.10208926 75218
RAX-2
1 37853U 11061D 13087.49121953 .00005296 00000-0 40873-3 0 4596
2 37853 101.7160 263.7829 0238381 258.6051 170.5536 14.82609181 76485
AUBIESAT
1 37854U 11061E 13087.48434751 .00005209 00000-0 39464-3 0 4575
2 37854 101.7196 264.4786 0238619 257.4524 167.9083 14.83226544 76498
HRBE
1 37855U 11061F 13087.07558248 .00004538 00000-0 34682-3 0 4536
2 37855 101.7195 263.6985 0239500 259.0016 214.4614 14.82945366 76424
RS-39
1 38051U 11062C 13087.81341111 .00008379 00000-0 29425-3 0 2968
2 38051 051.6362 237.8042 0011621 335.8321 176.9709 15.30176483 65462
E-STAR
1 38079U 12006C 13087.93304895 .00028714 32066-5 61719-3 0 22
2 38079 069.4830 013.8607 0654076 242.4861 197.0599 14.37263163 58176
GOLIAT
1 38085U 12006J 13087.81650180 .00024065 31597-5 52277-3 0 9264
2 38085 069.4910 015.7414 0661546 243.3837 109.8354 14.35586013 58116
HORYU-2
1 38340U 12025D 13087.08088818 .00000685 00000-0 12076-3 0 4373
2 38340 098.2082 034.0791 0013014 145.8808 214.3196 14.70706983 46197
RS-40
1 38736U 12041D 13087.65901372 .00000010 00000-0 00000 0 0 2248
2 38736 082.4793 205.3239 0021592 135.7742 224.5069 12.43229816 30249
PROITERES
1 38756U 12047B 13087.81862991 .00000378 00000-0 65331-4 0 6353
2 38756 098.2579 163.3724 0012875 008.5732 351.5682 14.74119053 29551
RAIKO
1 38852U 98067CN 13087.58347312 .00053496 00000-0 53416-3 0 1764
2 38852 051.6395 140.8586 0015575 053.9775 306.2662 15.64936627 27191
FITSAT 1
1 38853U 98067CP 13087.62269985 .00074615 00000-0 64595-3 0 1787
2 38853 051.6416 138.8910 0012555 060.2035 300.0209 15.68389512 27276
TechEdSat
1 38854U 98067CQ 13087.54862707 .00188345 00000-0 10053-2 0 2056
2 38854 051.6352 134.5804 0012614 051.9633 308.2505 15.79190033 27323
F 1
1 38855U 98067CR 13087.40681058 .00159116 00000-0 91389-3 0 2034
2 38855 051.6340 135.8772 0012321 052.1676 308.0438 15.77654856 27187
WeWish
1 38856U 98067CS 13069.98095549 .16701328 12537-4 10063-2 0 2487
2 38856 051.6166 215.0521 0008325 316.0438 044.8765 16.41348316 24586
